Location: Barnum Island
(40.6045°N, 73.6440°W)
Time: 03:40:26
(UTC+00:00)

Daily predictions for brighter satellites

Satellite Brightness Start Highest point End
(mag) Time Altitude Azimuth Time Altitude Azimuth Time Altitude Azimuth
SL-16 R/B 2.4 00:42:09 10° S 00:47:33 49° ESE 00:53:00 10° NE
ARGOS 3.3 00:46:05 10° SSE 00:51:24 62° ENE 00:56:44 10° N
Cosmos 2151 3.9 00:48:10 10° SSE 00:51:55 31° E 00:55:43 10° NNE
ISS -3.8 00:49:52 10° SW 00:53:11 65° SE 00:56:30 10° ENE
IRIDIUM 106 4.4 00:48:01 10° N 00:53:15 70° E 00:58:26 10° S
Cosmos 2233 Rocket 4.2 00:50:22 10° S 00:56:40 83° W 01:03:02 10° N
USA 215 3.4 00:51:25 10° NE 00:57:59 83° NW 01:04:33 10° SW
BREEZE M DEB (TANK) 2.1 01:00:51 10° W 01:01:54 20° SSW 01:03:22 10° SSE
Cosmos 1892 3.8 00:59:22 10° SSE 01:02:36 26° E 01:05:50 10° NNE
Cosmos 371 Rocket 3.4 00:57:44 10° NNW 01:02:38 80° WSW 01:07:28 10° SSE
Gbstr 26 Del rocket 4.1 00:58:37 10° WSW 01:02:44 45° NNW 01:06:25 10° NE
ERBS 3.9 01:00:25 10° WNW 01:03:18 27° SW 01:06:10 10° S
BREEZE-M DEB (TANK) 3.0 01:02:27 10° WNW 01:05:25 29° SW 01:07:16 10° SSE
Cosmos 2263 Rocket 2.3 01:01:43 10° NNW 01:07:25 68° ENE 01:13:04 10° SSE
In-Cosmos 22 Rocket 4.4 01:03:47 10° SSE 01:08:59 51° E 01:14:19 10° NNE
Okean 3 Rocket 3.7 01:10:20 10° S 01:14:52 88° W 01:19:26 10° N
Cosmos 332 Rocket 4.1 01:11:07 10° NNW 01:15:55 69° WSW 01:20:39 10° S
CZ-2C R/B 3.3 01:12:09 10° SSE 01:17:27 56° ENE 01:22:28 10° N
Resurs 1-3 3.8 01:13:53 10° S 01:18:15 74° WSW 01:22:39 10° NNW
DELTA 2 R/B (1) 3.8 01:15:01 10° SW 01:20:26 51° SSE 01:25:50 10° E
Cosmos 304 Rocket 3.8 01:18:26 10° NNW 01:23:16 68° ENE 01:27:31 13° SSE
Cosmos 2058 3.8 01:21:28 10° SSW 01:25:34 53° W 01:29:43 10° N
SL-4 R/B 2.7 01:21:39 10° SSW 01:26:12 44° SE 01:30:48 10° ENE
Cosmos 2034 Rocket 4.3 01:20:21 10° SSE 01:26:16 48° E 01:32:15 10° NNE
Cosmos 1515 Rocket 4.5 01:23:19 10° NNE 01:27:12 31° ENE 01:29:54 17° SE
Cosmos 1766 Rocket 3.5 01:23:44 10° S 01:28:03 89° W 01:32:25 10° N
USA 267 3.8 01:24:37 11° ESE 01:30:47 53° NE 01:37:07 10° NW
Cosmos 1408 3.8 01:29:23 18° SE 01:31:11 26° E 01:34:19 10° NNE
Terra 3.9 01:29:06 10° E 01:31:25 14° ENE 01:33:44 10° NNE
SOZ 4.4 01:28:28 10° SW 01:31:56 64° SE 01:34:04 10° ENE
Cosmos 44 Rocket 3.4 01:28:00 10° SSW 01:33:09 86° WNW 01:38:14 10° NNE
Cosmos 1408 Rocket 3.4 01:29:34 10° S 01:33:51 71° E 01:38:07 10° NNE
NOSS 3-1 (C) 3.9 01:31:41 10° S 01:36:24 31° ESE 01:41:38 10° NE
MTI 3.8 01:36:15 10° N 01:39:26 78° WNW 01:42:35 10° SSW
Cosmos 1900 4.4 01:35:08 10° SSW 01:40:14 67° ESE 01:45:22 10° NE
USA 245 3.4 01:41:28 22° ENE 01:41:33 22° ENE 01:43:23 10° NNE
COSMOS 2428 4.0 01:41:45 18° ESE 01:43:14 19° E 01:47:11 10° NE
H-2A R/B 3.2 01:38:50 10° S 01:43:59 43° W 01:49:06 10° NNW
MetOp-A 4.5 01:39:21 10° S 01:44:40 65° W 01:50:00 10° NNW
Cosmos 921 Rocket 2.9 01:43:44 10° NNW 01:48:02 81° ENE 01:50:50 21° SSE
Cosmos 1140 Rocket 4.4 01:46:47 21° SE 01:48:56 28° E 01:53:18 10° NE
Cosmos 1606 4.4 01:46:21 10° NNE 01:49:00 18° ENE 01:49:50 17° E
BREEZE-M DEB (TANK) 4.1 01:47:02 10° W 01:50:01 29° NNW 01:51:59 10° NE
Cosmos 1464 Rocket 4.2 01:45:33 10° S 01:51:50 77° W 01:58:04 10° N
Iridium 4 Rocket 3.8 01:46:39 10° N 01:52:36 86° W 01:58:05 11° S
Cosmos 2360 Rocket 2.1 01:47:45 10° SSW 01:53:21 73° ESE 01:58:59 10° NNE
Cosmos 407 Rocket 3.7 01:49:04 11° S 01:53:54 50° ESE 01:59:03 10° NNE
Cosmos 2228 Rocket 3.5 01:54:44 10° N 01:59:11 50° E 02:01:19 28° SE
Cosmos 614 Rocket 4.1 01:55:35 17° S 01:59:14 48° ESE 02:04:06 10° NNE
ERS-1 Rocket 3.3 01:57:30 24° SE 02:00:16 51° ENE 02:05:08 10° N
Cosmos 1190 Rocket 4.1 01:57:07 15° S 02:01:10 52° ESE 02:06:14 10° NNE
Cosmos 1151 Rocket 3.1 01:56:55 10° N 02:01:19 78° W 02:04:16 20° S
Cosmos 1825 2.4 02:01:45 33° SSE 02:03:02 48° E 02:06:41 10° NNE
Resurs 01 Rocket 3.3 01:59:30 10° SSW 02:03:24 30° W 02:07:20 10° NW
Thor Agena Rocket 3.6 02:02:14 10° NNE 02:07:11 53° E 02:10:02 24° SSE
Meteor 2-11 Rocket 4.5 02:07:06 20° SSE 02:11:16 62° E 02:17:16 10° NNE
Cosmos 1933 3.5 02:08:08 10° N 02:12:08 56° E 02:13:22 38° SE
Tiangong 2 1.6 02:09:13 10° W 02:12:10 40° SSW 02:12:13 40° SSW
CZ-2C R/B 2.5 02:07:36 10° NNE 02:12:50 86° ESE 02:17:15 14° SSW
USA 229 DEB 3.5 02:07:51 10° SSW 02:14:22 79° ESE 02:21:13 10° NE
USA 229 3.5 02:07:57 10° SSW 02:14:29 78° ESE 02:21:19 10° NE
Cosmos 1328 Rocket 4.5 02:11:35 10° NNW 02:15:45 44° W 02:18:54 16° SSW
NOSS 3-1 (A) 3.6 02:15:20 26° SSE 02:17:51 41° ESE 02:23:33 10° NE
Sich 1 4.1 02:19:36 26° E 02:19:41 26° E 02:23:16 10° NNE
ADEOS Rocket 4.1 02:15:35 10° N 02:20:42 38° WNW 02:25:43 10° SW
EO 1 Del DPAF 3.6 02:18:42 10° N 02:22:27 61° WNW 02:24:59 19° SSW
Cosmos 2219 Rocket 2.7 02:21:12 32° SE 02:22:54 40° ESE 02:28:08 10° NE
SPOT 5 3.0 02:22:01 35° SE 02:24:05 65° ENE 02:28:54 10° N
Cosmos 2322 Rocket 4.0 02:19:51 10° WSW 02:24:54 32° WNW 02:29:59 10° N
Cosmos 1500 Rocket 3.8 02:23:06 21° SSW 02:26:05 70° W 02:30:33 10° N
Cosmos 2333 4.1 02:24:49 20° S 02:28:47 67° ESE 02:34:25 10° NNE
ISS -1.1 02:27:25 10° WNW 02:30:07 22° NNW 02:32:48 10° NNE
SL-16 R/B 4.5 02:27:17 10° WSW 02:31:54 25° NW 02:36:34 10° N
SPOT 1/Viking Rocket 3.5 02:31:56 33° S 02:34:18 80° WSW 02:39:31 10° NNW
Cosmos 2333 Rocket 2.4 02:32:38 36° SSE 02:34:28 49° ESE 02:39:56 10° NE
Cosmos 2278 Rocket 3.9 02:30:55 10° N 02:35:12 21° NE 02:37:42 16° E
Meteor 2-3 Rocket 3.7 02:32:45 28° S 02:35:56 80° E 02:41:47 10° NNE
Landsat 7 4.0 02:37:30 36° S 02:39:24 68° WSW 02:44:09 10° NNW
IGS 5A 3.6 02:40:32 46° SSW 02:41:39 68° W 02:45:49 10° NNW
Meteor 1-26 Rocket 4.1 02:38:42 10° N 02:44:21 85° E 02:46:19 42° SSE
Cosmos 2322 3.9 02:39:26 10° SSW 02:45:03 71° WNW 02:50:44 10° NNE
Cosmos 1844 Rocket 2.6 02:40:27 10° NNW 02:46:10 89° SW 02:48:05 44° SSE
Landsat 4 3.5 02:42:59 10° NNE 02:46:40 75° E 02:46:40 75° E
Cosmos 2263 Rocket 4.5 02:47:18 10° WNW 02:50:41 16° W 02:54:04 10° SW
Lacrosse 5 rocket 4.2 02:49:07 10° NNW 02:51:33 14° NNE 02:53:59 10° NE
Cosmos 1818 3.8 02:48:18 10° NNW 02:53:43 59° NE 02:55:14 43° ESE
Cosmos 292 Rocket 3.7 02:48:58 10° NNW 02:53:49 80° WSW 02:54:50 55° S
Lacrosse 5 4.4 02:53:00 10° NNW 02:56:00 15° NNE 02:58:59 10° NE
ASTEX 1 3.4 02:51:25 10° NNE 02:56:24 64° E 02:57:10 56° SE
Cosmos 1627 Rocket 4.5 02:53:53 10° N 03:00:04 82° W 03:02:27 40° S
Cosmos 1707 Rocket 3.6 02:56:11 10° N 03:00:37 62° E 03:00:49 61° E
SL-4 R/B 3.6 03:01:23 10° W 03:06:01 44° NNW 03:10:36 10° NE
DELTA 2 R/B (1) 3.4 03:01:05 10° W 03:06:42 81° S 03:08:41 41° E
Cosmos 1782 2.8 03:03:08 10° N 03:06:55 72° NE 03:06:55 72° NE
Terra 1.9 03:07:43 56° SSW 03:08:34 69° WSW 03:13:20 10° NNW
Cosmos 2279 Rocket 3.9 03:08:41 46° S 03:10:38 82° E 03:16:52 10° N
IRAS Rocket 4.2 03:10:04 54° SE 03:11:17 72° ENE 03:16:54 10° N
MOS 1 Rocket 3.3 03:07:07 10° N 03:11:39 77° WNW 03:12:35 56° SW
Cosmos 1633 4.5 03:13:49 21° NE 03:13:49 21° NE 03:15:23 10° NNE
Cosmos 676 Rocket 4.4 03:09:31 27° SW 03:12:14 59° WNW 03:17:26 10° NNE
USA 267 3.7 03:11:57 38° S 03:13:48 47° SW 03:20:06 10° WNW
Cosmos 1862 4.4 03:15:01 35° NE 03:15:01 35° NE 03:17:45 10° NNE
BREEZE-M DEB (TANK) 3.4 03:10:19 10° WSW 03:14:20 65° NNW 03:20:50 10° NE
NOSS 2-3 (C) 3.9 03:15:07 56° ENE 03:15:07 56° ENE 03:19:21 10° NE
Cosmos 1867 3.5 03:15:00 63° SSE 03:15:30 67° ESE 03:20:58 10° NE
Cosmos 1805 Rocket 4.4 03:17:34 36° WSW 03:18:38 44° WNW 03:22:49 10° N
Kakehashi 4.5 03:07:44 10° W 03:20:20 42° SSW 03:21:14 40° S
Cosmos 1741 Rocket 4.0 03:22:37 61° ESE 03:22:37 61° ESE 03:27:42 10° NNE
Cosmos 1607 3.9 03:16:55 10° NW 03:23:04 75° WSW 03:24:20 57° S
SL-16 R/B 4.0 03:25:42 17° E 03:25:42 17° E 03:28:02 10° ENE
Cosmos 1606 4.3 03:21:33 10° NNW 03:24:44 26° W 03:24:52 26° W
Spot 4 4.2 03:25:26 50° ENE 03:25:32 50° ENE 03:30:09 10° N
COSMOS 2428 3.2 03:23:40 25° SW 03:26:57 58° WNW 03:32:38 10° NNE
NOSS 3-1 (C) 4.5 03:21:41 10° WSW 03:26:57 42° NW 03:33:00 10° NNE
Mayak -0.6 03:22:52 10° NNE 03:26:09 46° NE 03:26:09 46° NE
Cosmos 1844 4.2 03:24:35 10° NW 03:29:59 49° WSW 03:30:56 44° SW
ATLAS CENTAUR R/B 2.8 03:26:15 10° NNW 03:30:29 32° NE 03:30:55 32° ENE
Meteor 1-10 Rocket 4.1 03:25:57 10° N 03:31:38 80° E 03:32:23 67° SE
Lacrosse 4 Rocket 4.0 03:34:37 12° ENE 03:34:37 12° ENE 03:35:09 10° ENE
Cosmos 1850 Rocket 3.9 03:32:16 76° SSE 03:32:35 80° ESE 03:37:57 10° NNE
Nimbus 7 Rocket 4.4 03:26:47 10° NNE 03:32:41 65° ESE 03:33:22 60° SE
Cosmos 1980 3.6 03:32:54 66° ESE 03:33:05 66° ESE 03:38:45 10° NNE
Helios 1B rocket 4.2 03:31:35 10° NE 03:33:37 23° ENE 03:33:37 23° ENE
NOSS 0 Rocket 3.8 03:34:04 59° S 03:35:19 81° ESE 03:41:30 10° NNE
BREEZE-M DEB (TANK) 4.3 03:08:45 10° WNW 03:36:21 89° NNE 03:39:40 41° ESE
Cosmos 2242 Rocket 4.4 03:33:19 10° N 03:37:11 43° ENE 03:37:11 43° ENE
Cosmos 1666 Rocket 4.2 03:38:59 49° W 03:39:16 50° W 03:43:39 10° N
Cosmos 2237 Rocket 2.0 03:40:04 70° ESE 03:40:09 70° ESE 03:45:46 10° NNE
Cosmos 1633 Rocket 3.4 03:40:33 58° WNW 03:40:33 58° WNW 03:44:42 10° N
Cosmos 1933 Rocket 4.4 03:42:23 43° NE 03:42:23 43° NE 03:45:41 10° NNE
Meteor 2-6 Rocket 4.1 03:38:47 10° NNW 03:44:14 73° W 03:44:48 67° SW
ALOS 2 3.9 03:46:22 31° ENE 03:46:22 31° ENE 03:49:49 10° N
SeaSat 1 3.3 03:51:00 10° NE 03:54:31 39° ENE 03:54:31 39° ENE
Cosmos 1862 Rocket 4.0 03:53:34 10° NNW 03:57:08 58° NNW 03:57:08 58° NNW
Cosmos 1470 Rocket 4.1 03:59:49 57° NNW 03:59:49 57° NNW 04:03:30 10° N
GP-B 3.6 03:55:46 10° N 03:59:20 55° NNE 03:59:20 55° NNE
Cosmos 841 Rocket 4.3 03:55:52 10° N 04:00:40 39° ENE 04:00:50 38° ENE
BREEZE-M DEB (TANK) 4.4 04:00:09 10° NW 04:03:08 34° NNE 04:11:16 10° E
COSMOS 2455 2.9 04:04:48 63° E 04:04:48 63° E 04:10:31 10° NE
Cosmos 1655 Rocket 4.4 04:00:23 10° NNW 04:06:24 51° W 04:07:32 45° SW
Cosmos 2219 Rocket 3.8 04:02:51 14° WSW 04:06:54 30° WNW 04:11:52 10° N
Cosmos 1763 Rocket 3.5 04:01:50 10° NNW 04:06:51 74° NE 04:06:51 74° NE
ISS -0.4 04:06:14 10° NNW 04:07:45 12° N 04:09:15 10° NNE
Cosmos 468 Rocket 4.1 04:06:25 10° NNW 04:11:25 72° WNW 04:11:25 72° WNW
Cosmos 724 4.2 04:09:19 10° NNW 04:15:23 81° ENE 04:15:42 77° ESE
ATLAS 5 CENTAUR R/B 4.2 04:11:24 10° NNW 04:15:56 23° NE 04:20:24 12° E
Cosmos 1932 4.4 04:11:20 10° NNW 04:17:50 89° ENE 04:18:30 74° SE
Cosmos 2333 Rocket 4.1 04:14:33 11° WSW 04:18:59 25° NW 04:23:41 10° N
Cosmos 2278 Rocket 2.4 04:14:07 10° NNW 04:19:32 60° W 04:19:32 60° W
Meteor 1-27 Rocket 3.9 04:14:18 10° NNW 04:20:10 67° W 04:20:28 66° WSW
ERS-2 4.2 04:26:12 25° NNE 04:26:12 25° NNE 04:28:10 10° N
Lacrosse 5 rocket 2.5 04:27:27 10° NW 04:31:27 43° NNE 04:31:27 43° NNE
Cosmos 2208 Rocket 4.3 04:29:46 10° NNW 04:34:41 64° WNW 04:34:41 64° WNW
Cosmos 2285 Rocket 3.8 04:36:08 77° SW 04:36:36 85° WNW 04:42:57 10° NNE
Lacrosse 5 2.7 04:35:18 10° NW 04:40:09 44° NE 04:40:47 42° ENE
Cosmos 2369 Rocket 4.2 04:40:19 10° N 04:44:35 21° NE 04:47:24 15° E
Cosmos 1244 Rocket 4.3 04:39:07 10° N 04:45:31 84° E 04:45:54 79° SE
SL-19 R/B 4.4 04:45:27 66° E 04:45:41 67° ENE 04:51:28 10° N
Meteor 2-19 Rocket 4.4 04:42:55 10° N 04:49:05 74° E 04:49:23 72° ESE
Cosmos 1315 Rocket 4.4 04:47:41 10° N 04:50:01 34° NNW 04:50:01 34° NNW
Cosmos 1553 Rocket 3.8 04:57:05 76° ESE 04:57:11 77° E 05:03:17 10° N
ATLAS 2AS CENTAUR R/B 3.5 04:59:35 41° ESE 05:00:03 42° ESE 05:07:29 10° NE
Mayak 1.4 05:00:14 10° NW 05:02:08 13° WNW 05:02:44 13° WNW
S3M 4.0 05:01:48 65° ESE 05:02:09 67° E 05:08:30 10° NNE
Cosmos 1417 Rocket 4.3 05:02:46 81° SSE 05:03:04 85° E 05:09:22 10° N
SL-16 R/B 2.4 05:07:33 59° WNW 05:07:48 60° WNW 05:13:25 10° NNE
ATLAS CENTAUR R/B 3.7 05:05:27 10° NW 05:07:06 19° WNW 05:07:06 19° WNW
Lacrosse 4 Rocket 2.7 05:10:54 39° NW 05:10:54 39° NW 05:14:34 10° NNE
Helios 1B rocket 4.5 05:07:09 10° NNW 05:09:57 21° WNW 05:09:57 21° WNW
Cosmos 540 Rocket 4.2 05:15:37 10° NNW 05:19:29 43° WNW 05:19:29 43° WNW
Meteor 2-4 Rocket 4.2 05:16:25 10° N 05:21:59 49° ENE 05:22:26 48° E
Cosmos 2237 Rocket 4.3 05:21:51 13° W 05:24:47 19° NW 05:28:39 10° N
Cosmos 1943 4.0 05:25:41 38° E 05:25:41 38° E 05:30:25 10° NE
CZ-4C R/B 4.3 05:32:29 52° N 05:32:29 52° N 05:35:55 10° N
H-2A R/B 4.3 05:30:47 18° E 05:31:55 19° ENE 05:35:08 10° NNE
PSLV R/B 4.5 05:28:10 10° NNE 05:31:11 46° NNE 05:31:11 46° NNE
SeaSat 1 4.2 05:29:04 10° N 05:33:01 24° NW 05:34:16 22° WNW
Cosmos 1745 Rocket 3.8 05:26:47 10° N 05:33:05 81° W 05:33:26 77° SW
SL-19 R/B 4.4 05:28:48 10° N 05:34:18 59° WNW 05:34:23 59° WNW
Cosmos 2315 Rocket 4.1 05:44:10 60° SE 05:44:56 65° E 05:51:15 10° NNE
ISS -1.0 05:42:56 10° NNW 05:45:25 19° NNE 05:46:02 18° NE
Cosmos 1503 Rocket 4.1 05:45:41 71° NW 05:45:41 71° NW 05:50:47 10° NNE
Meteor 1-19 Rocket 4.3 05:42:34 10° NNW 05:47:36 61° WNW 05:47:36 61° WNW
Cosmos 968 Rocket 3.6 05:51:13 69° NW 05:51:13 69° NW 05:56:06 10° NNE
SL-08 ROCKET BODY 4.2 05:48:17 10° N 05:54:27 83° W 05:54:54 76° SSW
Cosmos 1386 Rocket 4.4 05:48:45 10° NNW 05:54:41 61° W 05:54:50 61° W
Cosmos 1943 Rocket 2.0 05:54:29 10° NNW 06:00:02 81° ENE 06:00:20 78° ESE
ATLAS 5 CENTAUR R/B 2.3 05:55:13 10° NW 06:01:11 80° WSW 06:01:52 71° S
Meteor 1-11 Rocket 3.5 06:01:37 82° SSE 06:01:52 86° E 06:07:35 10° N
Resurs 1-4 Rocket 3.1 05:59:35 10° NNE 06:04:26 35° E 06:05:00 34° ESE
NOSS 3-4 (A) 3.5 06:04:26 56° SE 06:04:48 57° ESE 06:10:56 10° NE
NOSS 3-4 (C) 3.5 06:04:33 55° SE 06:04:55 56° ESE 06:11:02 10° NE
Cosmos 1536 3.8 06:06:10 47° NNE 06:06:10 47° NNE 06:09:08 10° N
Cosmos 1354 Rocket 4.4 06:05:37 52° WNW 06:05:43 52° WNW 06:10:55 10° N
Cosmos 783 Rocket 4.4 06:04:50 10° NNW 06:10:03 85° ENE 06:10:07 84° E
Unknown 4.5 06:12:06 48° NE 06:12:06 48° NE 06:15:10 10° NE
Unknown 4.4 06:13:40 50° NE 06:13:40 50° NE 06:16:51 10° NE
Unknown 4.4 06:15:16 51° NNE 06:15:16 51° NNE 06:18:28 10° NE
Unknown 4.3 06:16:51 52° NNE 06:16:51 52° NNE 06:20:06 10° NE
Unknown 4.3 06:18:26 53° NNE 06:18:26 53° NNE 06:21:46 10° NE
Cosmos 1777 Rocket 4.2 06:18:05 55° ESE 06:18:20 56° ESE 06:23:27 10° NNE
Unknown 4.3 06:19:58 54° NNE 06:19:58 54° NNE 06:23:18 10° NE
Cosmos 1975 Rocket 3.7 06:16:09 10° N 06:20:20 47° E 06:20:24 47° E
Unknown 4.2 06:23:09 56° NNE 06:23:09 56° NNE 06:26:36 10° NE
CZ-4B R/B 3.9 06:17:58 10° N 06:22:46 49° WNW 06:22:49 49° WNW
Lacrosse 5 3.8 06:18:30 10° WNW 06:19:56 18° WNW 06:19:56 18° WNW
Unknown 4.2 06:24:46 57° NNE 06:24:46 57° NNE 06:28:17 10° NE
Meteor 1-5 Rocket 4.5 06:24:50 53° WSW 06:25:34 57° WNW 06:31:28 10° N
NOSS 3-2 (A) 4.0 06:17:55 10° NW 06:25:37 80° WSW 06:29:58 32° SSE
Unknown 4.2 06:26:26 55° N 06:26:26 55° N 06:30:06 10° NE
Unknown 4.1 06:27:55 57° N 06:27:55 57° N 06:31:34 10° NE
Unknown 4.5 06:28:54 43° NNW 06:28:54 43° NNW 06:32:17 10° NE
Cosmos 2369 Rocket 2.2 06:23:26 10° NNW 06:29:05 62° WSW 06:29:08 62° WSW
Unknown 4.1 06:29:32 57° N 06:29:32 57° N 06:33:15 10° NE
CENTAUR R/B 3.6 06:22:53 10° NNW 06:30:51 62° NE 06:39:25 10° SE
CZ-2D R/B 2.4 06:26:10 10° NNE 06:31:35 62° ESE 06:32:34 53° SSE
Unknown 4.1 06:32:44 56° NNW 06:32:44 56° NNW 06:36:34 10° NE
Meteor 2-8 Rocket 4.3 06:31:16 60° S 06:32:31 88° W 06:38:41 10° N
Unknown 4.1 06:34:19 55° NNW 06:34:19 55° NNW 06:38:12 10° NE
deb Chang Zheng 4 4.5 06:30:45 10° NNE 06:34:44 37° E 06:34:56 37° ESE
Unknown 4.1 06:35:56 54° NNW 06:35:56 54° NNW 06:39:52 10° NE
ATLAS 3B R/B 2.9 06:29:16 10° NNW 06:35:55 68° NE 06:42:41 10° SE
Unknown 4.2 06:37:30 52° NNW 06:37:30 52° NNW 06:41:31 10° NE
Unknown 4.2 06:39:07 51° NW 06:39:08 51° NNW 06:43:11 10° NE
Unknown 4.4 06:42:27 42° NW 06:42:46 43° NNW 06:46:45 10° NE
BREEZE-M DEB (TANK) 3.8 06:39:45 10° WNW 06:43:23 78° SSW 06:56:30 10° SE
Unknown 4.5 06:44:00 41° NW 06:44:22 43° NNW 06:48:20 10° NE
Unknown 4.4 06:45:32 43° NW 06:45:53 44° NNW 06:49:53 10° NE
RESURS DK-1 3.3 06:47:02 37° ESE 06:47:03 37° ESE 06:50:54 10° NE
Unknown 4.4 06:47:05 43° NW 06:47:28 44° NNW 06:51:28 10° NE
Cosmos 1975 3.7 06:48:41 39° ESE 06:49:09 41° E 06:53:00 10° NNE
Unknown 4.5 06:50:17 40° NW 06:50:49 42° NNW 06:54:47 10° NE
ATLAS 2AS CENTAUR R/B 3.6 06:47:00 29° WSW 06:50:59 51° NW 06:58:49 10° NNE
Meteor 1-23 Rocket 4.3 06:45:34 10° NNW 06:51:20 65° W 06:52:27 54° SW
USA 238 DEB 4.1 06:44:42 10° NW 06:51:29 45° WSW 06:52:28 42° SW
USA 238 4.1 06:44:47 10° NW 06:51:36 45° WSW 06:52:38 43° SW
Okean 2 Rocket 3.2 06:51:14 62° SE 06:51:42 68° E 06:56:07 10° NNE
Cosmos 2074 Rocket 3.9 06:49:29 10° N 06:55:48 86° W 06:58:10 41° S
Cosmos 773 Rocket 3.9 06:53:05 10° NNW 06:58:18 68° WSW 06:59:06 58° SSW
Cosmos 2263 4.4 06:54:22 10° NW 06:59:45 47° WSW 07:00:00 47° WSW
UNK 3.7 07:00:41 62° WSW 07:00:50 63° WSW 07:05:24 10° NNW
SL-16 R/B 2.5 06:59:45 44° SSW 07:01:44 67° WSW 07:07:55 10° NNW
H-2A R/B 2.7 07:07:53 41° W 07:07:53 41° W 07:11:53 10° NNW
Cosmos 1536 Rocket 4.4 07:04:07 10° N 07:08:27 47° E 07:10:46 25° SE
Cosmos 1943 4.4 07:07:29 25° W 07:09:19 31° WNW 07:14:18 10° N
CZ-4B R/B 3.3 07:10:29 19° ESE 07:11:48 26° ENE 07:14:28 10° NNE
Nadezhda 1 Rocket 4.0 07:11:06 38° SSW 07:13:46 84° W 07:20:12 10° N
Cosmos 1743 2.6 07:14:11 70° W 07:14:15 70° W 07:18:07 10° N
IRS-1C 4.1 07:11:24 10° NNE 07:16:47 82° ESE 07:18:50 39° S
Cosmos 1378 4.3 07:15:39 10° N 07:19:10 40° ENE 07:20:58 23° SE
ARIANE 5 R/B 2.8 07:14:42 10° NNE 07:19:47 61° E 07:22:11 31° S
AQUA 4.1 07:16:18 10° N 07:20:57 53° WNW 07:22:02 43° WSW
CBERS-1 4.1 07:16:05 10° N 07:21:09 61° WNW 07:22:40 42° SW
ISS-0.607:26:33SE07:26:33SE07:18:34NW
NPP 4.1 07:17:38 10° N 07:22:46 46° WNW 07:24:26 35° WSW
Cosmos 1656 Rocket 3.8 07:17:42 10° NNW 07:23:15 55° WSW 07:25:16 37° SSW
Cosmos 923 Rocket 4.2 07:19:53 10° NNW 07:25:14 75° ENE 07:30:09 12° SSE
Cosmos 2151 Rocket 3.5 07:25:49 48° SSW 07:27:03 80° W 07:31:35 10° N
Cosmos 1300 Rocket 3.5 07:25:58 49° SSW 07:27:08 81° W 07:31:36 10° N
CZ-4C R/B 3.4 07:30:43 47° W 07:30:43 47° W 07:33:53 10° NNW
CZ-2D R/B 4.3 07:27:31 10° NNE 07:31:43 47° E 07:34:03 24° SSE
Cosmos 1538 Rocket 4.4 07:27:06 10° NW 07:31:59 40° WSW 07:32:53 37° SW
Cosmos 1842 3.6 07:28:20 10° N 07:32:11 61° E 07:34:08 27° SSE
Atlas Centaur 2 3.8 07:31:36 22° S 07:32:39 23° SSE 07:37:29 10° ESE
Cosmos 2341 Rocket 4.4 07:26:44 10° N 07:33:06 67° E 07:39:26 10° SSE
Cosmos 1666 4.4 07:33:50 20° WNW 07:33:50 20° WNW 07:36:37 10° NNW
SL-08 R/B 3.2 07:33:28 37° S 07:35:12 64° W 07:39:55 10° NNW
GEOS 3 Rocket 4.3 07:31:57 10° NE 07:36:54 46° ESE 07:39:35 25° S
NOSS 3-2 (C) 4.4 07:30:30 10° NW 07:37:48 44° WSW 07:44:24 15° S
Cosmos 2154 Rocket 4.0 07:36:00 10° NNW 07:42:17 64° W 07:46:14 24° SSW
Cosmos 1943 Rocket 4.1 07:40:48 10° WNW 07:41:49 12° W 07:41:49 12° W
Spot 4 Rocket 4.0 07:38:06 10° NNE 07:43:17 85° ESE 07:46:14 27° S
Resurs 1-4 Rocket 3.3 07:39:35 10° N 07:44:06 29° WNW 07:46:04 23° WSW
ATLAS 5 CENTAUR R/B 4.3 07:42:19 10° W 07:43:19 12° W 07:43:19 12° W
USA 215 3.8 07:39:27 10° ESE 07:45:51 60° NE 07:52:16 10° NW
Cosmos 1346 Rocket 4.0 07:45:36 26° W 07:46:10 27° WNW 07:49:36 10° NNW
Genesis I 3.7 07:45:12 36° WSW 07:46:28 51° NW 07:50:28 10° NNE
Iridium 51 4.5 07:45:50 30° S 07:48:05 81° W 07:52:20 10° N
Okean 1 Rocket 3.2 07:45:47 25° S 07:48:22 73° E 07:52:51 10° NNE
Meteor 2-9 Rocket 4.1 07:45:35 27° SSW 07:48:41 83° W 07:54:16 10° N
Meteor 1-21 4.2 07:44:24 10° N 07:50:15 85° W 07:55:35 12° S
ADEOS II 2.0 07:45:09 10° N 07:50:26 81° WNW 07:53:32 25° SSW
Cosmos 1680 Rocket 3.4 07:45:17 10° NNW 07:50:37 86° WSW 07:55:53 10° SSE
Cosmos 1025 Rocket 3.0 07:47:01 10° NNW 07:51:24 73° W 07:53:57 24° S
Landsat 5 4.0 07:50:21 33° SW 07:51:45 43° W 07:55:57 10° NNW
CZ-2C R/B 3.0 07:50:31 10° NNE 07:54:13 63° E 07:56:22 24° S
Cosmos 1340 4.0 07:54:27 23° W 07:54:58 23° WNW 07:58:03 10° NNW
Cosmos 1937 Rocket 3.9 07:51:34 19° S 07:55:12 58° ESE 08:00:22 10° NNE
Cosmos 1898 Rocket 3.5 07:54:44 24° SSW 07:58:02 87° ESE 08:03:24 10° NNE
Cosmos 1544 3.1 08:03:50 23° S 08:06:00 85° E 08:09:43 10° N
SL-4 R/B 2.5 08:03:28 10° NW 08:08:01 69° NNE 08:12:12 10° ESE
CZ-2D R/B 3.9 08:07:28 10° NNW 08:11:07 19° WNW 08:13:54 13° W
SL-8 Rocket 4.0 08:13:42 10° N 08:20:01 77° W 08:26:19 10° S
SJ 16-02 1.3 08:17:00 18° SSW 08:20:12 85° WNW 08:24:36 10° NNE
CENTAUR R/B 3.7 08:14:06 10° NW 08:21:25 36° WSW 08:29:02 10° S
BREEZE-M DEB (TANK) 3.9 08:22:26 10° SSE 08:23:03 11° SE 08:23:41 10° ESE
RESURS DK-1 4.2 08:22:55 13° W 08:25:13 20° NW 08:28:18 10° N
ATLAS 3B R/B 3.7 08:21:01 10° WNW 08:26:01 23° WSW 08:30:31 12° SSW
PSLV R/B 2.8 08:25:05 18° W 08:27:03 79° N 08:29:52 10° E
Cosmos 2181 Rocket 4.2 08:22:36 14° SSW 08:27:54 56° W 08:34:02 10° N
Cosmos 1455 Rocket 3.9 08:25:38 10° S 08:29:52 51° E 08:34:07 10° NNE
COSMOS 2406 3.3 08:25:42 16° SSW 08:30:19 70° WNW 08:35:59 10° NNE
FALCON 9 R/B 2.2 08:34:55 13° S 08:35:41 15° SSE 08:37:22 10° ESE
Milstar 3 Cent rocket 3.6 08:35:08 13° SSW 08:38:17 22° SSE 08:43:18 10° ESE
Cosmos 1892 Rocket 3.6 08:38:18 10° N 08:42:41 87° E 08:47:03 10° S
Cosmos 864 Rocket 4.5 08:36:51 10° NNW 08:43:02 68° W 08:49:08 10° S
Cosmos 1689 Rocket 3.6 08:42:38 16° SW 08:43:48 19° W 08:46:01 10° NW
CZ-4B R/B 3.2 08:43:48 12° WSW 08:44:15 13° W 08:45:43 10° WNW
Cosmos 405 4.1 08:45:35 10° NW 08:48:35 26° W 08:51:34 10° SSW
Cosmos 1707 2.9 08:45:41 10° NNW 08:49:25 49° W 08:53:07 10° S
Milstar 3 3.8 08:44:22 11° WSW 08:49:55 33° S 08:57:43 10° ESE
PSLV R/B 3.9 08:47:31 10° S 08:51:34 66° WSW 08:55:40 10° NNW
In-Cosmos 22 4.3 08:48:23 10° N 08:54:05 85° E 08:59:38 10° S
Meteor 1-15 Rocket 4.3 08:51:53 10° SSW 08:57:33 65° WNW 09:03:09 10° N
ARIANE 5 R/B 4.3 08:55:08 10° NNW 08:58:23 17° WNW 09:01:40 10° WSW
Cosmos 2298 Rocket 4.1 08:53:31 10° SSW 08:58:47 74° WNW 09:04:06 10° NNE
ADEOS 3.7 08:54:18 10° N 08:59:26 60° WNW 09:04:33 10° SSW
Cosmos 1697 Rocket 3.5 08:55:16 10° NNW 09:00:52 59° ENE 09:06:27 10° SE
Cosmos 1833 Rocket 2.8 08:57:09 10° SSW 09:02:47 90° NW 09:08:28 10° NNE
H-2A R/B 2.8 08:58:42 10° N 09:03:07 58° WNW 09:07:32 10° SSW
Meteor 1-28 Rocket 4.0 09:00:56 10° SSW 09:04:22 32° W 09:07:49 10° NNW
Cosmos 1674 4.0 09:00:59 10° N 09:04:40 44° E 09:08:21 10° SSE
Cosmos 1980 Rocket 4.0 09:02:57 10° N 09:08:09 38° ENE 09:13:19 10° SE
GPS 2-04 Rocket1 4.1 09:05:39 10° SSW 09:08:16 20° SSE 09:10:51 10° ESE
Cosmos 2150 Rocket 4.1 09:03:26 10° SSW 09:08:37 67° WNW 09:13:46 10° NNE
Cosmos 2278 4.3 09:06:38 10° NNW 09:12:16 65° ENE 09:17:51 10° SSE
